Wind_Speed
48 46 48 51 52 59 60 57 48 27 21 20 21 23 25 28 31 35 41 46 52 58 62 66 69 73 76 82 90 95 94 91 87 90 92 95 92 84 80 78 71 68 69 67 71
48 46 50 43 47 35 14 11 12 14 16 17 20 22 25 29 30 33 36 41 46 51 58 64 68 70 74 78 81 83 87 93 94 97 98 101 97 94 81 78 80 75 75 71 73
37 29 24 12 8 4 7 8 10 14 18 19 21 25 28 36 40 43 46 45 44 44 47 51 57 63 69 76 77 77 78 85 98 101 99 101 101 98 91 83 78 76 73 72 74
7 4 2 3 3 6 7 8 9 14 18 22 23 32 39 42 49 53 54 55 48 43 40 40 44 49 54 60 61 66 74 79 85 95 105 103 105 101 94 89 86 83 81 75 71
10 8 4 4 6 10 9 7 7 12 17 24 28 32 38 45 53 59 59 61 54 44 34 31 33 36 40 44 49 55 64 69 76 85 92 103 106 106 99 95 91 86 86 79 73
10 9 9 9 8 11 14 14 12 11 16 22 30 35 40 45 51 60 63 64 63 50 36 27 26 29 32 35 41 44 52 61 70 76 81 88 99 107 105 101 94 87 87 82 77
6 7 10 13 10 11 14 13 14 11 19 23 29 36 41 44 52 61 67 69 69 56 40 30 30 30 29 30 33 38 45 51 59 70 76 82 88 96 108 108 100 92 89 86 83
7 6 6 9 11 14 14 15 15 15 20 27 31 35 41 43 50 60 67 68 71 66 45 34 30 29 30 31 30 33 40 45 51 56 68 75 81 88 98 108 105 97 95 90 86
3 4 7 7 8 13 12 14 18 15 25 29 33 36 40 45 49 58 67 70 73 75 61 42 32 25 27 31 29 31 37 40 46 48 57 66 70 79 86 92 100 105 98 94 88
1 4 5 7 9 10 9 13 19 21 25 29 34 37 41 45 47 55 65 69 75 80 77 57 47 36 30 20 24 29 32 39 39 41 48 56 65 75 77 79 87 91 97 98 94
5 5 9 12 11 11 10 14 18 23 27 31 35 36 39 46 48 54 65 69 75 78 78 69 50 39 31 29 21 20 24 30 38 40 40 46 54 68 76 74 79 85 87 89 97
7 6 8 11 11 12 15 17 18 21 26 32 37 36 40 46 46 54 63 66 74 76 83 81 70 51 40 30 23 13 16 18 24 34 39 44 49 57 67 73 74 81 83 83 81
7 11 10 9 11 14 19 21 20 23 24 31 35 38 38 46 49 52 61 65 71 76 81 84 81 68 52 45 37 30 30 25 18 19 28 38 48 55 63 68 70 72 76 79 76
11 15 17 10 11 16 20 21 21 23 24 30 34 37 39 45 50 49 57 60 64 75 78 79 83 78 64 51 46 35 32 30 31 31 23 21 38 46 48 57 66 60 63 71 71
19 16 19 16 15 17 20 21 21 25 28 29 31 35 39 43 48 51 55 60 59 69 77 79 82 80 74 60 50 40 33 32 34 33 33 26 20 37 38 46 56 53 55 59 63
21 19 19 17 16 22 26 25 24 25 27 28 32 34 38 45 46 49 50 57 58 63 71 74 78 77 77 68 55 46 35 30 31 33 33 31 21 22 26 34 46 49 48 53 57
25 22 23 21 20 25 26 28 25 27 26 29 29 35 37 44 43 46 47 52 57 61 69 73 76 77 77 77 65 51 38 33 29 30 29 30 22 11 13 21 31 41 42 48 55
30 29 27 27 22 27 33 34 30 27 28 27 29 34 35 42 41 43 44 50 54 54 61 69 70 74 74 77 72 60 45 33 30 31 33 34 25 16 5 13 22 31 36 42 53
36 33 34 31 25 24 33 31 31 30 30 30 32 33 36 37 39 43 43 49 51 52 53 66 69 69 73 79 77 72 57 42 34 30 30 28 24 19 10 2 16 25 30 37 46
42 39 33 24 28 27 33 36 35 34 33 31 31 31 34 38 38 42 42 47 45 51 52 62 65 69 71 76 79 78 71 52 39 32 24 23 24 19 16 4 10 18 27 32 43
40 35 33 31 30 30 39 39 36 34 32 29 30 31 32 37 40 39 44 46 44 46 51 57 61 63 67 71 75 78 75 64 47 34 29 20 19 16 12 8 7 19 25 29 37
46 41 35 33 33 34 41 41 39 38 34 30 32 33 36 35 40 39 41 42 43 44 49 54 60 60 62 67 70 73 75 71 61 43 29 24 16 10 8 5 7 16 23 25 34
51 49 43 39 37 34 37 42 47 39 40 34 33 36 38 38 37 37 36 40 39 42 46 53 61 60 58 62 66 70 73 75 67 56 38 25 21 12 2 3 9 12 20 24 28
56 49 44 38 40 40 40 45 51 45 40 34 35 33 37 36 34 38 39 38 38 42 46 50 56 57 58 60 63 69 69 70 70 61 48 33 20 16 8 7 14 22 21 27 25
62 57 54 49 49 49 46 46 48 48 42 35 35 33 34 35 34 34 38 37 37 40 46 51 52 52 55 58 59 64 66 64 66 64 56 44 31 18 12 5 15 30 33 34 36
69 67 65 61 54 52 50 51 50 48 43 38 36 40 39 35 34 35 35 36 35 41 49 50 49 49 52 56 59 61 62 62 61 61 55 50 40 27 16 10 8 17 38 43 40
74 72 68 63 57 53 55 51 48 46 45 38 40 40 39 37 33 33 36 35 36 41 47 50 48 48 50 54 57 58 61 59 57 56 53 50 47 38 22 14 12 11 19 36 42
Wind_Direction
268 276 281 284 285 297 293 292 293 294 307 310 306 310 312 312 316 309 299 292 287 281 276 271 268 265 261 257 253 251 251 248 247 247 245 247 249 246 247 244 241 245 247 251 255
272 282 284 294 296 295 290 303 318 324 326 335 330 336 343 342 338 333 321 308 296 286 277 272 268 265 262 258 254 251 248 240 242 243 243 246 248 249 247 250 246 243 245 245 251
285 285 287 286 278 317 348 345 356 20 14 11 10 7 7 10 5 357 352 336 317 301 287 277 269 264 260 257 255 251 245 241 238 240 241 243 246 247 247 250 247 244 245 246 247
252 199 123 126 54 17 2 13 44 24 19 17 22 20 17 14 8 5 359 352 337 318 303 287 276 267 262 260 257 252 246 242 237 237 239 240 242 244 243 243 242 243 245 245 243
134 115 82 32 36 41 31 25 11 18 23 21 18 14 11 10 10 8 4 358 349 336 322 304 288 274 267 263 258 251 246 241 238 237 236 237 239 241 241 238 239 240 242 243 242
109 77 60 71 69 46 40 27 4 15 24 19 13 9 7 7 8 8 8 4 359 350 338 324 309 293 282 271 262 254 249 241 236 238 237 237 238 240 240 238 238 240 240 240 239
117 83 70 46 42 34 26 18 12 8 20 12 9 6 6 4 7 10 11 10 6 359 347 333 319 307 293 277 269 260 254 247 239 236 236 235 237 237 238 239 237 238 236 237 237
119 80 48 34 23 26 18 21 16 17 9 9 6 5 4 5 6 8 11 12 9 7 360 344 325 308 294 285 271 262 256 252 245 239 237 237 237 238 237 237 239 237 235 238 236
124 20 359 16 3 13 17 18 16 14 8 7 8 6 4 4 6 7 11 15 13 12 9 1 352 330 305 293 281 262 259 256 253 243 240 240 240 242 240 239 238 238 234 235 234
204 329 351 16 19 14 8 8 7 12 12 8 8 6 6 7 6 8 10 14 16 17 14 12 10 0 346 316 284 277 259 259 259 258 251 244 238 240 241 240 241 238 239 233 234
270 332 348 356 350 14 9 3 1 5 8 8 4 4 6 9 8 9 9 11 16 17 16 17 19 23 12 351 333 297 274 262 262 261 250 245 249 244 245 241 237 237 235 237 232
297 336 346 346 9 10 7 359 349 357 2 2 0 3 4 5 10 8 8 9 14 18 18 18 20 21 23 22 18 4 329 291 269 264 257 253 243 241 245 246 241 236 234 233 234
270 293 319 341 345 348 350 350 355 343 358 357 356 359 1 3 7 8 7 10 13 19 19 19 20 20 20 18 15 15 19 4 343 283 263 259 253 242 237 238 240 238 232 229 231
262 278 296 301 323 336 343 337 337 346 343 349 351 357 355 358 3 5 8 10 14 17 18 21 22 19 19 16 13 8 16 5 353 344 322 282 266 261 248 242 243 239 232 229 225
261 277 276 288 302 319 332 330 332 335 337 341 346 356 357 356 358 2 5 9 14 15 19 19 21 20 19 16 11 6 6 8 352 350 347 328 271 264 255 239 236 238 234 227 225
254 262 268 276 299 311 309 318 324 334 338 340 342 351 357 358 357 359 4 7 10 13 16 20 19 21 21 18 14 10 6 5 4 358 341 329 318 281 254 240 233 226 225 220 219
261 261 264 266 264 301 287 300 318 329 333 340 341 344 350 353 356 357 1 6 7 8 13 18 20 21 19 19 17 15 10 4 0 5 359 356 349 303 243 226 224 222 215 215 210
263 266 263 267 268 295 288 298 307 313 326 334 332 339 343 347 353 360 2 1 3 6 10 15 18 18 20 20 19 17 16 7 5 15 10 1 355 0 279 201 210 211 207 206 205
260 266 274 276 273 293 288 291 300 306 320 329 334 339 343 346 349 355 356 358 360 3 6 11 12 16 21 23 20 18 17 10 3 11 10 1 12 19 11 240 199 196 197 198 201
261 266 272 264 273 270 278 292 301 302 313 322 328 332 339 345 343 350 351 356 356 0 4 10 12 13 16 19 22 20 19 14 6 4 17 10 15 24 22 47 168 182 181 192 197
257 261 268 273 260 270 269 286 295 299 310 317 323 328 334 340 341 344 350 352 353 356 360 5 11 11 12 17 20 20 19 18 14 6 2 11 16 10 35 55 135 164 175 187 193
256 257 258 258 258 270 271 277 285 296 306 311 319 324 331 333 337 341 345 352 351 353 354 360 6 10 10 11 16 18 18 19 19 14 1 1 2 18 26 54 137 172 177 177 186
256 259 257 255 258 260 265 273 281 291 303 305 312 319 322 330 334 338 346 348 350 351 355 355 360 5 9 8 9 13 15 18 19 18 10 359 1 356 28 129 160 177 186 184 181
255 257 257 253 260 258 260 267 279 289 295 303 308 310 316 322 329 333 344 347 345 347 351 352 357 360 4 4 5 9 12 14 17 18 16 8 358 359 331 195 185 166 167 160 193
253 256 257 254 257 257 258 263 265 286 291 297 306 304 313 319 328 332 338 344 340 344 347 350 353 355 357 1 4 5 8 10 13 14 16 15 8 358 354 301 194 189 180 188 199
249 250 251 253 254 258 261 262 268 276 286 294 299 301 307 313 321 326 334 337 334 336 342 346 349 352 354 357 359 1 3 5 7 10 13 15 15 7 348 319 280 233 205 199 215
246 249 250 253 255 259 260 258 264 271 279 285 292 297 302 305 312 320 327 331 330 331 336 339 344 347 349 352 355 359 359 2 2 3 6 11 14 12 1 334 286 254 236 223 223
Height
10824 10823 10822 10821 10820 10819 10817 10811 10808 10806 10802 10799 10795 10791 10788 10782 10774 10768 10760 10751 10743 10736 10728 10722 10716 10714 10713 10716 10719 10727 10741 10760 10761 10759 10752 10742 10755 10772 10789 10800 10808 10815 10820 10827 10818
10818 10815 10816 10814 10813 10812 10810 10806 10804 10802 10798 10797 10793 10787 10782 10777 10769 10760 10750 10738 10728 10717 10707 10700 10695 10691 10689 10690 10692 10698 10711 10724 10730 10732 10733 10727 10737 10752 10773 10784 10794 10801 10804 10813 10806
10810 10810 10811 10809 10810 10810 10807 10804 10802 10800 10797 10794 10790 10785 10779 10771 10763 10751 10739 10726 10711 10699 10688 10680 10674 10670 10668 10664 10669 10676 10685 10691 10702 10708 10714 10715 10719 10733 10754 10768 10776 10783 10787 10797 10795
10807 10808 10809 10809 10808 10806 10804 10802 10800 10798 10795 10790 10786 10781 10774 10766 10756 10743 10729 10715 10697 10683 10670 10661 10655 10651 10650 10648 10650 10653 10657 10665 10676 10683 10693 10699 10699 10712 10730 10746 10752 10763 10769 10781 10783
10807 10808 10807 10807 10806 10805 10802 10800 10798 10796 10792 10788 10783 10777 10769 10760 10748 10736 10722 10705 10687 10669 10657 10648 10642 10638 10635 10634 10632 10634 10635 10643 10653 10659 10668 10678 10685 10690 10707 10721 10729 10743 10752 10762 10770
10807 10806 10806 10806 10805 10803 10801 10799 10796 10794 10790 10785 10779 10772 10764 10754 10745 10733 10718 10700 10679 10661 10648 10640 10634 10628 10625 10621 10618 10621 10620 10624 10630 10638 10652 10662 10664 10674 10688 10701 10717 10729 10738 10748 10758
10805 10806 10806 10804 10803 10801 10799 10796 10793 10791 10787 10781 10775 10768 10760 10751 10741 10729 10711 10694 10677 10659 10643 10633 10625 10619 10614 10612 10610 10609 10608 10609 10615 10622 10629 10638 10643 10654 10662 10677 10695 10711 10721 10731 10741
10804 10804 10803 10802 10801 10800 10797 10794 10790 10787 10783 10778 10771 10764 10756 10747 10736 10724 10710 10694 10678 10659 10643 10631 10620 10612 10605 10602 10601 10599 10597 10599 10603 10612 10617 10622 10632 10634 10643 10656 10671 10689 10705 10713 10729
10802 10802 10801 10801 10800 10798 10795 10792 10788 10784 10779 10774 10768 10761 10752 10743 10733 10721 10709 10695 10681 10659 10640 10627 10615 10607 10600 10593 10592 10592 10589 10590 10592 10600 10606 10612 10621 10620 10628 10638 10651 10665 10683 10695 10708
10800 10800 10800 10799 10797 10794 10792 10789 10785 10781 10777 10771 10764 10758 10750 10741 10731 10720 10709 10693 10678 10659 10641 10624 10611 10601 10594 10591 10586 10583 10583 10582 10584 10590 10597 10597 10603 10602 10609 10623 10633 10646 10658 10678 10691
10798 10798 10797 10796 10795 10792 10790 10787 10783 10778 10773 10769 10762 10756 10748 10738 10729 10719 10705 10693 10679 10663 10648 10631 10616 10603 10592 10585 10582 10579 10577 10576 10577 10580 10584 10586 10595 10592 10590 10605 10613 10623 10638 10650 10672
10797 10796 10794 10793 10792 10790 10788 10785 10781 10777 10772 10767 10761 10754 10746 10738 10730 10720 10708 10695 10681 10664 10648 10632 10617 10605 10595 10587 10582 10577 10573 10572 10571 10569 10572 10572 10575 10575 10578 10581 10595 10604 10618 10637 10649
10793 10792 10792 10791 10789 10786 10784 10782 10779 10774 10771 10765 10758 10751 10744 10736 10728 10719 10708 10695 10680 10665 10651 10634 10619 10608 10596 10588 10581 10576 10570 10566 10565 10564 10562 10558 10555 10555 10556 10561 10569 10582 10603 10620 10636
10790 10789 10788 10787 10786 10783 10781 10777 10775 10772 10768 10763 10757 10750 10742 10733 10726 10718 10710 10699 10686 10672 10657 10643 10625 10612 10600 10590 10582 10576 10570 10565 10561 10556 10552 10550 10545 10541 10550 10555 10554 10572 10590 10608 10628
10786 10785 10784 10783 10781 10780 10777 10774 10771 10768 10765 10760 10754 10749 10741 10732 10723 10715 10706 10698 10690 10676 10662 10647 10634 10619 10604 10592 10584 10576 10569 10563 10557 10551 10545 10539 10536 10529 10532 10536 10542 10557 10576 10595 10617
10780 10780 10780 10778 10777 10776 10773 10770 10768 10765 10762 10757 10751 10746 10741 10733 10724 10716 10709 10699 10690 10680 10668 10653 10638 10625 10614 10600 10587 10576 10567 10562 10555 10549 10543 10533 10526 10520 10520 10524 10529 10541 10559 10581 10598
10774 10774 10774 10774 10772 10772 10767 10766 10765 10761 10758 10753 10749 10743 10739 10733 10726 10717 10709 10699 10688 10675 10667 10656 10643 10630 10616 10603 10591 10578 10567 10561 10556 10552 10540 10529 10521 10516 10513 10517 10524 10536 10550 10569 10584
10766 10767 10767 10768 10767 10765 10762 10762 10760 10758 10755 10751 10746 10741 10735 10729 10724 10717 10709 10700 10693 10683 10672 10662 10653 10640 10626 10613 10599 10584 10574 10566 10558 10550 10540 10530 10524 10519 10517 10516 10522 10533 10545 10560 10575
10758 10759 10760 10762 10762 10760 10756 10755 10754 10753 10751 10748 10744 10739 10735 10729 10721 10715 10708 10700 10690 10682 10674 10664 10653 10645 10632 10618 10603 10588 10576 10566 10559 10551 10546 10538 10530 10523 10522 10523 10526 10533 10545 10558 10571
10749 10751 10752 10752 10754 10753 10750 10749 10749 10748 10747 10744 10739 10734 10730 10725 10720 10714 10706 10699 10691 10684 10676 10668 10656 10644 10633 10622 10609 10595 10580 10571 10561 10556 10550 10545 10538 10533 10529 10529 10532 10538 10546 10557 10566
10739 10742 10744 10744 10745 10746 10743 10742 10742 10743 10743 10739 10735 10731 10726 10721 10716 10709 10704 10697 10690 10683 10676 10669 10660 10650 10639 10627 10614 10602 10593 10581 10568 10560 10554 10550 10547 10544 10540 10539 10539 10542 10550 10557 10564
10729 10733 10734 10736 10737 10738 10736 10735 10735 10736 10737 10734 10731 10727 10723 10719 10715 10709 10701 10694 10688 10681 10673 10667 10662 10652 10642 10632 10623 10613 10602 10588 10576 10566 10559 10555 10553 10552 10550 10549 10548 10550 10553 10558 10565
10717 10721 10724 10726 10728 10730 10729 10725 10725 10730 10730 10729 10726 10723 10719 10716 10710 10706 10700 10691 10686 10680 10673 10665 10657 10651 10646 10636 10626 10617 10603 10594 10585 10575 10566 10560 10557 10557 10556 10556 10556 10556 10557 10560 10566
10704 10710 10712 10716 10718 10720 10720 10716 10714 10718 10722 10723 10720 10718 10715 10712 10708 10701 10696 10691 10684 10678 10672 10665 10657 10649 10642 10634 10624 10616 10607 10599 10591 10583 10574 10566 10560 10558 10558 10561 10560 10560 10563 10564 10570
10691 10696 10699 10705 10706 10710 10711 10708 10705 10707 10711 10712 10712 10711 10709 10706 10703 10699 10693 10687 10681 10674 10669 10664 10657 10650 10642 10635 10626 10617 10609 10602 10594 10588 10580 10572 10565 10560 10558 10559 10562 10564 10565 10567 10569
10674 10679 10683 10691 10695 10699 10700 10698 10698 10696 10700 10702 10704 10702 10701 10699 10696 10693 10689 10683 10679 10672 10665 10660 10654 10649 10642 10634 10627 10619 10611 10603 10597 10590 10583 10577 10571 10564 10560 10559 10558 10559 10563 10564 10566
10652 10660 10666 10677 10682 10687 10685 10687 10688 10688 10688 10693 10695 10695 10695 10693 10691 10687 10683 10679 10675 10670 10664 10658 10652 10646 10641 10634 10627 10622 10614 10606 10597 10590 10584 10579 10574 10569 10563 10559 10559 10558 10558 10562 10564